Find Starlink 37793

NORAD ID: 100286 Int'l Des: 2026-183 Owner: SPXS Country: US Constellation: starlink operational

現在のビュー

3D地球を読み込み中...

About Starlink 37793

Starlink 37793 (NORAD 100286) is a starlink constellation satellite launched Aug 11, 2026 by SPXS of US. with a mass of 575.00 kg.

次回通過

Passes for default location (London). Set your location on the main map for personalized predictions.

高度履歴

Loading altitude history...

軌道要素

1 A0286U 26183Q 26257.96631113 -.00439616 00000-0 -62825-2 0 9994
2 A0286 53.1589 284.7221 0004481 345.4960 14.5924 15.57093871 5436
Epoch: Sep 14, 2026 • Age: 135 hours

現在のステータス

高度 414.6 km
遠地点 / 近地点 N/A
速度 7.67 km/s
衛星直下点 38.00°N, 167.09°W
打ち上げ日 Aug 11, 2026
運用期間 0.1 years
タイプ internet

技術仕様

分類 Payload
質量 575.00 kg
乾燥質量 530.00 kg
長さ 0.30 m
スパン 29.00 m
形状 ? Box + pan
製造者 SPXS
バスタイプ Starlink V2MO
フェーズステータス In Orbit
所有者/国 SPXS/US

Most Searched